Location: Usti nad Labem
(50.6670°N, 14.0330°E)
Time: 22:03:21
(UTC+01:00)

Envisat - Pass Details

Date: 02 December 2020
Orbit: 764 x 766 km, 98.1° (Epoch: 15 January)

Event Time Altitude Azimuth Distance (km) Brightness Sun altitude
Rises 16:58:48 0° 167° (SSE) 3,221 6.4 -8.7°
Reaches altitude 10° 17:01:06 10° 168° (SSE) 2,299 5.6 -9.1°
Maximum altitude 17:06:10 81° 255° (WSW) 783 3.2 -9.8°
Drops below altitude 10° 17:11:18 10° 344° (NNW) 2,316 5.4 -10.6°
Sets 17:13:37 0° 346° (NNW) 3,247 6.2 -10.9°
